| time (UTC) | temp F | wind direction | speed knots | gust knots | rain 1hr in | rain 24hr in | rain mn in | humidity % | barometer mb |
| 20260506072159 | 59 | 40 | 0.0 | 0.0 | 0.00 | 0.00 | 0.00 | 46 | 1091.1 |
| 20260506062154 | 61 | 351 | 0.0 | 0.0 | 0.00 | 0.15 | 0.15 | 38 | 1090.6 |
| 20260506042148 | 65 | 244 | 1.7 | 2.6 | 0.00 | 0.15 | 0.15 | 36 | 1089.9 |
| 20260506035149 | 66 | 351 | 0.9 | 0.9 | 0.00 | 0.15 | 0.15 | 34 | 1089.2 |
| 20260506032148 | 67 | 259 | 1.7 | 6.1 | 0.00 | 0.15 | 0.15 | 35 | 1088.9 |
| 20260506025148 | 68 | 42 | 5.2 | 7.0 | 0.00 | 0.15 | 0.15 | 33 | 1087.9 |
| 20260506022147 | 68 | 18 | 5.2 | 8.7 | 0.00 | 0.15 | 0.15 | 31 | 1087.4 |
| 20260506015143 | 69 | 276 | 4.3 | 7.0 | 0.00 | 0.15 | 0.15 | 29 | 1087.2 |
| 20260506012141 | 71 | 352 | 1.7 | 3.5 | 0.00 | 0.15 | 0.15 | 25 | 1087.1 |
| 20260506005136 | 71 | 45 | 1.7 | 6.1 | 0.00 | 0.15 | 0.15 | 25 | 1086.9 |
| 20260506002131 | 73 | 45 | 2.6 | 3.5 | 0.00 | 0.15 | 0.15 | 26 | 1086.7 |
| 20260505235131 | 75 | 265 | 6.1 | 11.3 | 0.00 | 0.15 | 0.15 | 25 | 1086.3 |
| 20260505232126 | 75 | 301 | 1.7 | 11.3 | 0.00 | 0.15 | 0.15 | 24 | 1086.2 |
| 20260505225125 | 75 | 303 | 5.2 | 7.0 | 0.00 | 0.15 | 0.15 | 26 | 1086.1 |
| 20260505222123 | 75 | 129 | 0.9 | 8.7 | 0.00 | 0.15 | 0.15 | 25 | 1086.5 |
| 20260505215119 | 75 | 266 | 3.5 | 8.7 | 0.00 | 0.15 | 0.15 | 26 | 1086.8 |
| 20260505212118 | 76 | 187 | 0.9 | 6.1 | 0.00 | 0.15 | 0.15 | 26 | 1087.1 |
| 20260505205119 | 73 | 114 | 1.7 | 3.5 | 0.00 | 0.15 | 0.15 | 33 | 1087.9 |
| 20260505202116 | 72 | 193 | 2.6 | 5.2 | 0.00 | 0.15 | 0.15 | 39 | 1088.2 |
| 20260505195111 | 74 | 249 | 5.2 | 8.7 | 0.00 | 0.15 | 0.15 | 37 | 1087.9 |
| 20260505192111 | 74 | 89 | 0.0 | 2.6 | 0.00 | 0.15 | 0.15 | 42 | 1088.3 |
| 20260505185109 | 72 | 344 | 0.9 | 2.6 | 0.00 | 0.15 | 0.15 | 45 | 1088.6 |
| 20260505182107 | 70 | 262 | 0.9 | 2.6 | 0.00 | 0.15 | 0.15 | 47 | 1089.0 |
| 20260505175103 | 71 | 332 | 0.0 | 0.9 | 0.00 | 0.15 | 0.15 | 48 | 1089.2 |
| 20260505172102 | 68 | 307 | 0.9 | 1.7 | 0.00 | 0.15 | 0.15 | 54 | 1089.5 |
| 20260505165102 | 66 | 261 | 0.9 | 1.7 | 0.00 | 0.15 | 0.15 | 57 | 1089.4 |
| 20260505162058 | 64 | 219 | 0.9 | 3.5 | 0.00 | 0.15 | 0.15 | 63 | 1089.4 |
| 20260505152053 | 60 | 154 | 0.0 | 0.9 | 0.00 | 0.15 | 0.15 | 86 | 1089.3 |
| 20260505125041 | 57 | 154 | 0.0 | 0.0 | 0.00 | 0.15 | 0.15 | 94 | 1088.1 |
| 20260505122038 | 57 | 123 | 0.0 | 0.0 | 0.00 | 0.15 | 0.15 | 94 | 1088.0 |
| 20260505115034 | 57 | 162 | 0.0 | 0.0 | 0.00 | 0.15 | 0.15 | 93 | 1087.8 |
| 20260505112032 | 57 | 114 | 0.0 | 0.9 | 0.00 | 0.15 | 0.15 | 93 | 1088.0 |
| 20260505102027 | 57 | 113 | 1.7 | 3.5 | 0.00 | 0.14 | 0.14 | 93 | 1088.1 |
| 20260505095025 | 57 | 101 | 0.0 | 1.7 | 0.00 | 0.14 | 0.14 | 93 | 1089.0 |
| 20260505092025 | 57 | 152 | 0.9 | 2.6 | 0.00 | 0.14 | 0.14 | 93 | 1088.9 |
| 20260505085022 | 57 | 124 | 0.0 | 0.9 | 0.00 | 0.13 | 0.13 | 92 | 1089.2 |
| 20260505082021 | 57 | 73 | 0.9 | 3.5 | 0.07 | 0.12 | 0.12 | 92 | 1090.1 |